Location: Mount Cross
(36.6390°N, 79.4878°W)
Time: 00:22:42
(UTC+00:00)

Vanguard 2 Rocket - Pass Details

Date: 24 March 2023
Orbit: 554 x 3314 km, 32.9° (Epoch: 08 June)

Event Time Altitude Azimuth Distance (km) Brightness Sun altitude
Rises 04:37:26 0° 275° (W) 4,829 10.8 -50.5°
Reaches altitude 10° 04:40:06 10° 273° (W) 4,138 10.3 -50.7°
Enters shadow 04:42:44 22° 269° (W) 3,536 9.9 -50.8°
Exits shadow 05:15:23 - 115° (ESE) 7,131 11.3 -52.0°
Sets 05:16:10 0° 115° (ESE) 7,296 11.3 -52.0°
